Location: Grasslands National Park East Block
(49.0708°N, 106.5295°W)
Time: 21:32:39
(UTC-06:00)

SR - All Passes

Search period start: 21 September 2019 00:00
Search period end: 01 October 2019 00:00
Orbit: 576 x 880 km, 66.7° (Epoch: 20 September)

Date Brightness Start Highest point End Pass type
(mag) Time Alt. Az. Time Alt. Az. Time Alt. Az.
21 Sep - 06:04:53 10° S 06:09:23 46° ESE 06:14:19 10° NE visible
21 Sep - 07:47:09 10° WSW 07:51:38 35° NW 07:56:31 10° NNE daylight
21 Sep - 09:32:35 10° NW 09:35:22 14° NNW 09:38:17 10° NNE daylight
21 Sep - 11:17:23 10° NNW 11:19:53 13° N 11:22:27 10° NE daylight
21 Sep - 12:59:14 10° NNW 13:03:56 26° NE 13:08:49 10° E daylight
21 Sep - 14:41:00 10° NW 14:46:45 89° SW 14:52:41 10° SSE daylight
21 Sep - 16:24:20 10° WNW 16:28:12 19° WSW 16:32:07 10° SSW daylight
22 Sep - 05:16:15 10° SSE 05:20:03 25° ESE 05:24:09 10° NE visible
22 Sep - 06:56:58 10° SW 07:01:43 57° NW 07:06:57 10° NNE daylight
22 Sep - 08:41:31 10° WNW 08:45:01 18° NNW 08:48:42 10° NNE daylight
22 Sep - 10:27:16 10° NNW 10:29:23 12° N 10:31:33 10° NNE daylight
22 Sep - 12:09:44 10° NNW 12:13:43 19° NNE 12:17:51 10° ENE daylight
22 Sep - 13:51:23 10° NNW 13:57:00 57° NE 14:02:49 10° SE daylight
22 Sep - 15:33:51 10° NW 15:38:55 32° WSW 15:44:06 10° S daylight
23 Sep - 04:28:53 10° SE 04:30:56 13° ESE 04:33:03 10° ENE visible
23 Sep - 06:07:14 10° SSW 06:12:00 82° ESE 06:17:17 10° NE visible
23 Sep - 07:50:41 10° W 07:54:47 25° NNW 07:59:11 10° NNE daylight
23 Sep - 09:36:34 10° NNW 09:38:52 13° N 09:41:16 10° NNE daylight
23 Sep - 11:20:10 10° NNW 11:23:22 15° NNE 11:26:41 10° NE daylight
23 Sep - 13:01:50 10° NNW 13:07:05 37° NE 13:12:31 10° ESE daylight
23 Sep - 14:43:51 10° NW 14:49:29 56° WSW 14:55:15 10° SSE daylight
23 Sep - 16:30:10 10° W 16:30:29 10° W 16:30:47 10° WSW daylight
24 Sep - 05:18:01 10° S 05:22:30 44° ESE 05:27:25 10° NE visible
24 Sep - 07:00:09 10° WSW 07:04:42 37° NW 07:09:40 10° NNE daylight
24 Sep - 08:45:31 10° NW 08:48:25 15° NNW 08:51:27 10° NNE daylight
24 Sep - 10:30:25 10° NNW 10:32:55 13° N 10:35:29 10° NE daylight
24 Sep - 12:12:21 10° NNW 12:17:01 26° NE 12:21:51 10° E daylight
24 Sep - 13:54:06 10° NW 13:59:52 88° NE 14:05:49 10° SE daylight
24 Sep - 15:37:20 10° WNW 15:41:21 20° WSW 15:45:26 10° SSW daylight
25 Sep - 04:29:27 10° SSE 04:33:12 23° ESE 04:37:13 10° ENE visible
25 Sep - 06:10:02 10° SW 06:14:48 61° NW 06:20:05 10° NNE visible
25 Sep - 07:54:28 10° WNW 07:58:04 19° NNW 08:01:52 10° NNE daylight
25 Sep - 09:40:15 10° NNW 09:42:25 12° N 09:44:38 10° NNE daylight
25 Sep - 11:22:50 10° NNW 11:26:46 19° NNE 11:30:52 10° ENE daylight
25 Sep - 13:04:29 10° NNW 13:10:06 55° NE 13:15:55 10° SE daylight
25 Sep - 14:46:54 10° NW 14:52:04 34° WSW 14:57:19 10° S daylight
26 Sep - 03:42:16 10° SE 03:44:05 12° ESE 03:45:56 10° E visible
26 Sep - 05:20:20 10° SSW 05:25:06 78° ESE 05:30:24 10° NE visible
26 Sep - 07:03:39 10° W 07:07:50 26° NW 07:12:20 10° NNE daylight
26 Sep - 08:49:29 10° NW 08:51:55 13° N 08:54:23 10° NNE daylight
26 Sep - 10:33:15 10° NNW 10:36:25 15° NNE 10:39:41 10° NE daylight
26 Sep - 12:14:56 10° NNW 12:20:10 36° NE 12:25:35 10° ESE daylight
26 Sep - 13:56:56 10° NW 14:02:36 59° WSW 14:08:25 10° SSE daylight
26 Sep - 15:42:17 10° W 15:43:39 11° W 15:45:01 10° WSW daylight
27 Sep - 04:31:09 10° S 04:35:38 42° ESE 04:40:31 10° NE visible
27 Sep - 06:13:09 10° WSW 06:17:46 38° NW 06:22:48 10° NNE visible
27 Sep - 07:58:26 10° NW 08:01:28 15° NNW 08:04:36 10° NNE daylight
27 Sep - 09:43:28 10° NNW 09:45:58 13° N 09:48:31 10° NE daylight
27 Sep - 11:25:26 10° NNW 11:30:05 25° NNE 11:34:53 10° E daylight
27 Sep - 13:07:12 10° NW 13:12:59 84° NE 13:18:56 10° SE daylight
27 Sep - 14:50:20 10° WNW 14:54:31 21° WSW 14:58:44 10° SSW daylight
28 Sep - 03:42:39 10° SSE 03:46:20 22° ESE 03:50:16 10° ENE visible
28 Sep - 05:23:04 10° SW 05:27:53 64° NW 05:33:13 10° NNE visible
28 Sep - 07:07:25 10° WNW 07:11:06 19° NNW 07:15:01 10° NNE daylight
28 Sep - 08:53:13 10° NNW 08:55:27 12° N 08:57:43 10° NNE daylight
28 Sep - 10:35:55 10° NNW 10:39:50 19° NNE 10:43:52 10° ENE daylight
28 Sep - 12:17:35 10° NNW 12:23:13 53° NE 12:29:00 10° SE daylight
28 Sep - 13:59:58 10° NW 14:05:13 36° WSW 14:10:32 10° S daylight
29 Sep - 02:55:44 10° ESE 02:57:14 11° E 02:58:46 10° E visible
29 Sep - 04:33:24 10° SSW 04:38:12 74° ESE 04:43:31 10° NE visible
29 Sep - 06:16:38 10° W 06:20:54 27° NW 06:25:29 10° NNE visible
29 Sep - 08:02:25 10° NW 08:04:57 13° N 08:07:31 10° NNE daylight
29 Sep - 09:46:19 10° NNW 09:49:28 15° NNE 09:52:41 10° NE daylight
29 Sep - 11:28:03 10° NNW 11:33:15 35° NE 11:38:38 10° ESE daylight
29 Sep - 13:10:02 10° NW 13:15:45 62° WSW 13:21:34 10° SSE daylight
29 Sep - 14:54:57 10° W 14:56:50 12° WSW 14:58:43 10° WSW daylight
30 Sep - 03:44:17 10° S 03:48:44 39° ESE 03:53:37 10° NE visible
30 Sep - 05:26:11 10° WSW 05:30:50 40° NW 05:35:57 10° NNE visible
30 Sep - 07:11:22 10° NW 07:14:29 16° NNW 07:17:45 10° NNE daylight
30 Sep - 08:56:29 10° NNW 08:58:59 13° N 09:01:33 10° NE daylight
30 Sep - 10:38:33 10° NNW 10:43:09 25° NNE 10:47:54 10° E daylight
30 Sep - 12:20:18 10° NW 12:26:06 81° NE 12:32:03 10° SE daylight
30 Sep - 14:03:21 10° WNW 14:07:41 22° WSW 14:12:02 10° SSW daylight
